Regional Weather Roundup
Issued by NWS

Home | Current Version | Previous Version | Text Only | Print | Product List | Glossary Off
Versions: 1 2 3 4 5 6 7 8 9 10 11 12 13 14 15 16 17 18 19 20 21 22 23 24 25 26 27 28 29 30 31 32 33 34 35 36 37 38 39 40 41 42 43 44 45 46 47 48 49 50

000
ASUS43 KLMK 061410
RWRKY
KENTUCKY REGIONAL WEATHER ROUNDUP
NATIONAL WEATHER SERVICE LOUISVILLE KY
1000 AM EDT WED MAY 06 2015

NOTE "FAIR" INDICATES FEW OR NO CLOUDS BELOW 12,000 FEET
WITH NO SIGNIFICANT WEATHER AND/OR OBSTRUCTIONS TO VISIBILITY.

KYZ001>023-026-027-061>063-070>075-061500-
WESTERN AND SOUTH CENTRAL KENTUCKY

CITY           SKY/WX    TMP DP  RH WIND       PRES   REMARKS
PADUCAH        MOSUNNY   75  57  53 S7        30.18R
HENDERSON      SUNNY     73  55  53 S5        30.19S
OWENSBORO      MOSUNNY   72  59  63 CALM      30.21S
HOPKINSVILLE   MOSUNNY   71  57  60 S6        30.20S
BOWLING GREEN  PTSUNNY   74  59  59 CALM      30.21S
GLASGOW        MOSUNNY   68  58  72 CALM      30.21S
$$

KYZ024-025-028>034-038-045-046-053-061500-
NORTH CENTRAL KENTUCKY

CITY           SKY/WX    TMP DP  RH WIND       PRES   REMARKS
LOUISVILLE/SDF MOSUNNY   73  57  57 CALM      30.21F
LOUISVILLE/LOU SUNNY     74  57  55 SW3       30.22S
FORT KNOX      SUNNY     74  57  55 SE3       30.20F
$$

KYZ035>037-039>044-047>052-055>060-089>105-061500-
NORTHEAST KENTUCKY

CITY           SKY/WX    TMP DP  RH WIND       PRES   REMARKS
LEXINGTON      PTSUNNY   72  59  63 CALM      30.24S
COVINGTON      MOSUNNY   76  58  53 CALM      30.23R
FRANKFORT      SUNNY     74  59  59 CALM      30.22S
$$

KYZ054-064>069-076>088-106>120-061500-
SOUTHEAST KENTUCKY

CITY           SKY/WX    TMP DP  RH WIND       PRES   REMARKS
JACKSON        CLOUDY    66  57  72 CALM      30.25S
LONDON         PTSUNNY   72  54  53 SW5       30.24F
SOMERSET       PTSUNNY   68  55  64 CALM      30.25S
MIDDLESBORO    PTSUNNY   65  57  76 CALM      30.26F
MONTICELLO     MOSUNNY   76  58  53 SW3       30.26S
$$



USA.gov is the U.S. government's official web portal to all federal, state and local government web resources and services.